Preview of NWS' New Version of Forecast
This preview is not operational and should not be used for support decisions.
Latest weather observations around

Council Bluffs (KCBF)

Using English Units (Switch to International System of Units)
Date/ Time (CDT) Wind (mph) Vis. (mi) Weather Sky Cond. Temp (°F) Rel. Humidity Wind Chill (°F) Heat Index (°F) Pressure Precip. (in)
Air Dwpt 6 hour Altimeter (inHg) Sea level (inHg) 1 hr 3 hr 6 hr
Max Min
Sep 16 09:35 S 8 10 Clear CLR 77 70     78%   78 30.04        
Sep 16 09:15 S 8 10 Clear CLR 77 72     83%   78 30.04        
Sep 16 08:55 SSE 7 10 Clear CLR 73 72     94%   75 30.04        
Sep 16 08:35 SE 7 10 Clear CLR 72 72     100%   73 30.04        
Sep 16 08:15 SSE 6 10 Clear CLR 72 70     94%   73 30.04        
Sep 16 07:55 SSE 7 10 Clear CLR 70 70     100%     30.03        
Sep 16 07:35 SSE 6 10 Clear CLR 70 70     100%     30.03        
Sep 16 07:15 SSE 7 10 Clear CLR 70 70     100%     30.02        
Sep 16 06:55 SSE 8 10 Clear CLR 70 70     100%     30.02        
Sep 16 06:35 SSE 7 10 Clear CLR 70 70     100%     30.01        
Sep 16 06:15 SSE 7 10 Clear CLR 70 70     100%     30.01        
Sep 16 05:55 S 7 10 Clear CLR 70 70     100%     30        
Sep 16 05:35 S 6 10 Clear CLR 72 70     94%   73 30        
Sep 16 05:15 SE 6 10 Clear CLR 70 70     100%     30        
Sep 16 04:55 SSE 7 10 Clear CLR 72 72     100%   73 30        
Sep 16 04:35 SE 6 10 Clear CLR 70 70     100%     30        
Sep 16 04:15 SSE 7 10 Clear CLR 70 70     100%     30        
Sep 16 03:55 SE 8 10 Clear CLR 70 70     100%     30        
Sep 16 03:35 SE 7 10 Clear CLR 70 70     100%     29.99        
Sep 16 03:15 SE 7 10 Clear CLR 70 70     100%     29.99        
Sep 16 02:55 SSE 8 10 Clear CLR 70 70     100%     29.99        
Sep 16 02:35 SE 9 10 Clear CLR 72 72     100%   73 29.99        
Sep 16 02:15 SE 9 10 Clear CLR 72 72     100%   73 29.99        
Sep 16 01:55 SE 7 10 Clear CLR 72 72     100%   73 29.99        
Sep 16 01:35 SSE 7 10 Clear CLR 72 72     100%   73 29.99        
Sep 16 01:15 SE 7 10 Clear CLR 72 72     100%   73 29.99        
Sep 16 00:55 SE 6 10 Clear CLR 73 73     100%   75 29.99        
Sep 16 00:35 SE 5 10 Clear CLR 73 73     100%   75 29.99        
Sep 16 00:15 SE 6 10 Clear CLR 73 72     94%   75 29.99        
Sep 15 23:55 SE 6 10 Clear CLR 72 72     100%   73 29.99        
Sep 15 23:35 SE 6 10 Clear CLR 73 72     94%   75 29.99        
Sep 15 23:15 SE 6 10 Clear CLR 73 73     100%   75 29.99        
Sep 15 22:55 SE 7 10 Clear CLR 73 72     94%   75 29.99        
Sep 15 22:35 ESE 7 10 Clear CLR 75 73     94%   77 29.99        
Sep 15 22:15 ESE 7 10 Clear CLR 75 73     94%   77 29.99        
Sep 15 21:55 ESE 6 10 Clear CLR 75 72     89%   77 29.98        
Sep 15 21:35 SE 6 10 Clear CLR 75 72     89%   77 29.98        
Sep 15 21:15 SE 5 10 Clear CLR 75 72     89%   77 29.98        
Sep 15 20:55 SE 6 10 Clear CLR 77 72     83%   78 29.98        
Sep 15 20:35 ESE 7 10 Clear CLR 77 72     83%   78 29.98        
Sep 15 20:15 SE 6 10 Clear CLR 79 70     74%   80 29.97        
Sep 15 19:55 SSE 5 10 Clear CLR 81 70     70%   84 29.97        
Sep 15 19:35 SSE 3 10 Clear CLR 82 68     62%   85 29.97        
Sep 15 19:15 Calm 10 Clear CLR 82 70     66%   86 29.97        
Sep 15 18:55 SE 5 10 Clear CLR 84 66     55%   87 29.97        
Sep 15 18:35 SSE 3 10 Clear CLR 88 66     49%   90 29.97        
Sep 15 18:15 SSE 5 10 Clear CLR 88 64     46%   89 29.97        
Sep 15 17:55 SSE 5 10 Clear CLR 90 63     41%   90 29.97        
Sep 15 17:35 S 6 10 Clear CLR 90 59     36%   89 29.97        
Sep 15 17:15 3 10 Clear CLR 90 64     43%   91 29.97        
Sep 15 16:55 SSE 3 10 Clear CLR 90 63     41%   90 29.97        
Sep 15 16:35 Calm 10 Clear CLR 90 64     43%   91 29.97        
Sep 15 16:15 5 10 Clear CLR 90 64     43%   91 29.97        
Sep 15 15:55 SSW 7 10 Clear CLR 90 66     46%   92 29.97        
Sep 15 15:35 5 10 Clear CLR 90 64     43%   91 29.97        
Sep 15 15:15 5 10 Clear CLR 90 64     43%   91 29.97        
Sep 15 14:55 SW 7 10 Clear CLR 90 61     38%   90 29.98        
Sep 15 14:35 Calm 10 Clear CLR 90 61     38%   90 29.98        
Sep 15 14:15 Calm 10 Clear CLR 88 64     46%   89 29.99        
Sep 15 13:55 Calm 10 Clear CLR 88 64     46%   89 29.99        
Sep 15 13:35 Calm 10 Clear CLR 86 68     55%   89 30        
Sep 15 13:15 SW 8 10 Clear CLR 86 68     55%   89 30        
Sep 15 12:55 S 8 10 Clear CLR 86 70     59%   91 30        
Sep 15 12:35 3 10 Clear CLR 84 70     62%   88 30        
Sep 15 12:15 Calm 10 Clear CLR 84 73     70%   91 30        
Sep 15 11:55 SW 7 10 Clear CLR 82 73     74%   88 30        
Sep 15 11:35 Calm 10 Clear CLR 81 73     79%   85 30        
Sep 15 11:15 SSW 6 10 Clear CLR 81 73     79%   85 30        
Sep 15 10:55 SSW 5 10 Clear CLR 81 73     79%   85 30        
Sep 15 09:55 Calm 10 Clear CLR 77 72     83%   78 29.99        
Sep 15 09:35 W 3 10 Clear CLR 75 72     89%   77 29.99        
Sep 15 09:15 WSW 7 10 Clear CLR 73 72     94%   75 29.98        
Sep 15 08:55 W 6 10 Clear CLR 73 72     94%   75 29.98        
Sep 15 08:35 WSW 6 10 Clear CLR 72 70     94%   73 29.98        
Sep 15 08:15 WSW 7 10 Clear CLR 72 72     100%   73 29.98        
Sep 15 07:55 WSW 7 10 Clear CLR 70 70     100%     29.98        
Sep 15 07:35 SW 9 10 Clear CLR 70 70     100%     29.97        
Sep 15 07:15 SW 9 10 Clear CLR 70 70     100%     29.97        
Sep 15 06:55 SW 8 10 Clear CLR 70 70     100%     29.97        
Sep 15 06:35 SW 7 10 Clear CLR 70 70     100%     29.96        
Sep 15 06:15 SW 6 10 Clear CLR 70 70     100%     29.96        
Sep 15 05:55 SW 7 10 Clear CLR 70 70     100%     29.95        
Sep 15 05:35 SW 9 10 Clear CLR 72 70     94%   73 29.94        
Sep 15 05:15 SW 10 10 Clear CLR 72 72     100%   73 29.95        
Sep 15 04:55 SW 8 10 Clear CLR 72 72     100%   73 29.95        
Sep 15 04:35 SW 9 10 Clear CLR 73 72     94%   75 29.95        
Sep 15 04:15 SSW 9 10 Clear CLR 73 72     94%   75 29.94        
Sep 15 03:55 SW 9 10 Clear CLR 73 72     94%   75 29.94        
Sep 15 03:35 SSW 10 10 Clear CLR 73 72     94%   75 29.94        
Sep 15 03:15 SSW 9 10 Clear CLR 75 72     89%   77 29.95        
Sep 15 02:55 SSW 9 10 Clear CLR 75 72     89%   77 29.95        
Sep 15 02:35 SSW 8 10 Clear CLR 75 72     89%   77 29.95        
Sep 15 02:15 S 9 10 Clear CLR 75 72     89%   77 29.95        
Sep 15 01:55 SSW 8 10 Clear CLR 75 72     89%   77 29.95        
Sep 15 01:35 SSW 7 10 Clear CLR 77 73     89%   79 29.95        
Sep 15 01:15 SSW 9 10 Mostly Clear FEW080 77 72     83%   78 29.95        
Sep 15 00:55 SSW 11 10 Partly Cloudy SCT080 77 73     89%   79 29.94        
Sep 15 00:35 SSW 10 10 Mostly Cloudy BKN075 BKN090 77 73     89%   79 29.94        
Sep 15 00:15 S 10 10 Mostly Cloudy FEW050 SCT075 BKN085 77 73     89%   79 29.94        
Sep 14 23:55 SSW 10 10 Mostly Clear FEW070 79 73     84%   82 29.95        
Sep 14 23:35 S 13 10 Partly Cloudy SCT070 79 73     84%   82 29.95        
Sep 14 23:15 S 13 10 Partly Cloudy FEW065 SCT075 SCT120 81 73     79%   85 29.95        
Sep 14 22:55 S 11 10 Cloudy BKN065 OVC080 81 73     79%   85 29.96        
Sep 14 22:35 S 9 10 Cloudy OVC060 77 73     89%   79 29.96        
Sep 14 22:15 S 10 10 Partly Cloudy SCT060 77 73     89%   79 29.96        
Sep 14 21:55 S 9 10 Clear CLR 77 75     94%   79 29.96        
Sep 14 21:35 S 10 10 Clear CLR 77 75     94%   79 29.95        
Sep 14 21:15 S 10 10 Clear CLR 77 75     94%   79 29.95        
Sep 14 20:55 S 10 10 Clear CLR 77 75     94%   79 29.94        
Sep 14 20:35 S 9 10 Clear CLR 77 75     94%   79 29.94        
Sep 14 20:15 S 10 10 Mostly Clear FEW050 79 75     89%   82 29.93        
Sep 14 19:55 S 9 10 Mostly Cloudy BKN055 79 73     84%   82 29.94        
Sep 14 19:35 S 11 10 Partly Cloudy SCT055 81 72     74%   85 29.94        
Sep 14 19:15 S 10 10 Clear CLR 81 72     74%   85 29.94        
Sep 14 18:55 S 14 10 Clear CLR 82 72     70%   87 29.93        
Sep 14 18:35 S 15 10 Clear CLR 82 72     70%   87 29.93        
Sep 14 18:15 S 11 10 Mostly Cloudy BKN050 BKN060 84 72     66%   90 29.94        
Sep 14 17:55 SSW 13 10 Mostly Cloudy BKN050 84 72     66%   90 29.95        
Sep 14 17:35 SSW 11 10 Partly Cloudy SCT050 82 72     70%   87 29.95        
Sep 14 17:15 S 16 10 Clear CLR 84 72     66%   90 29.95        
Sep 14 16:55 S 14 10 Partly Cloudy SCT047 84 72     66%   90 29.95        
Sep 14 16:35 S 18 10 Mostly Cloudy SCT034 SCT039 BKN047 84 72     66%   90 29.96        
Sep 14 16:15 S 14 10 Mostly Cloudy BKN035 BKN043 82 72     70%   87 29.97        
Sep 14 15:55 SSW 15 10 Partly Cloudy SCT031 SCT037 84 72     66%   90 29.97        
Sep 14 15:35 S 18 10 Mostly Clear FEW033 82 70     66%   86 29.97        
Sep 14 15:15 S 14 10 Mostly Clear FEW030 84 72     66%   90 29.98        
Sep 14 14:55 S 20 10 Partly Cloudy and Windy SCT030 84 70     62%   88 29.99        
Sep 14 14:35 S 18 10 Partly Cloudy SCT029 82 70     66%   86 30        
Sep 14 14:15 S 15 10 Partly Cloudy SCT030 82 70     66%   86 30        
Sep 14 13:55 SSW 16 10 Partly Cloudy SCT029 SCT034 82 70     66%   86 30.01        
Sep 14 13:35 S 16 10 Mostly Cloudy BKN028 BKN032 81 70     70%   84 30.02        
Sep 14 13:15 S 16 10 Partly Cloudy SCT027 SCT032 81 70     70%   84 30.03        
Sep 14 12:55 S 15 10 Clear CLR 79 68     70%   80 30.04        
Sep 14 12:35 S 13 10 Clear CLR 77 68     74%   78 30.05        
Sep 14 12:15 SE 13 10 Clear CLR 75 68     78%   76 30.06        
Sep 14 11:55 SE 11 10 Clear CLR 73 66     78%   74 30.06   0    
Sep 14 11:35 SE 10 10 Partly Cloudy FEW029 SCT065 SCT095 70 66     88%     30.07        
Sep 14 11:15 SE 8 9 Mostly Cloudy FEW004 BKN028 BKN070 66 64     94%     30.08        
Sep 14 10:55 ENE 10 10 Cloudy BKN029 OVC070 66 63     88%     30.11        
Sep 14 10:35 5 10 Mostly Cloudy FEW070 BKN100 70 59     69%     30.09        
Sep 14 10:15   10 Mostly Cloudy BKN100 70 57     64%     30.05        
Sep 14 09:55 S 10 10 Mostly Clear FEW100 70 57     64%     30.08        
Sep 14 09:35   10 Clear CLR 70 59     69%     30.06        
Sep 14 09:15 S 15 10 Mostly Clear FEW110 70 59     69%     30.07        
Sep 14 08:55 S 13 10 Mostly Clear FEW110 68 61     78%     30.09        
Sep 14 08:35 S 14 10 Mostly Clear FEW033 FEW110 66 63     88%     30.08        
Sep 14 08:15 S 13 10 Partly Cloudy SCT031 SCT110 66 63     88%     30.09        
Sep 14 07:55 S 10 10 Partly Cloudy SCT030 66 61     83%     30.1        
Sep 14 07:35 S 13 10 Clear CLR 66 61     83%     30.09        
Sep 14 07:15 S 10 10 Clear CLR 64 61     88%     30.09        
Sep 14 06:55 S 9 10 Clear CLR 66 61     83%     30.1        
Sep 14 06:35 SSW 10 10 Clear CLR 64 59     83%     30.1        
Sep 14 06:15 S 13 10 Clear CLR 66 59     78%     30.09        
Sep 14 05:55 SSW 11 10 Clear CLR 64 59     83%     30.09        
Sep 14 05:35 SSW 11 10 Clear CLR 64 57     77%     30.1        
Sep 14 05:15 SSW 13 10 Clear CLR 66 57     73%     30.1        
Sep 14 04:55 SSW 13 10 Clear CLR 66 57     73%     30.11        
Sep 14 04:35   10 Clear CLR 64 57     77%     30.11        
Sep 14 04:15 SSW 13 10 Clear CLR 66 57     73%     30.11        
Sep 14 03:55 SSW 13 10 Clear CLR 66 57     73%     30.11        
Sep 14 03:15 SSW 14 10 Clear CLR 66 59     78%     30.11        
Sep 14 02:55 SSW 14 10 Clear CLR 66 59     78%     30.11        
Sep 14 02:35 SSW 15 10 Clear CLR 66 59     78%     30.11        
Sep 14 02:15   10 Clear CLR 66 59     78%     30.11        
Sep 14 01:55 SSW 15 10 Clear CLR 66 59     78%     30.12        
Sep 14 01:35 SSW 13 10 Clear CLR 68 59     73%     30.11        
Sep 14 01:15 SSW 14 10 Clear CLR 68 59     73%     30.11        
Sep 14 00:55 SSW 11 10 Clear CLR 68 59     73%     30.11        
Sep 14 00:35 SSW 11 10 Clear CLR 68 57     68%     30.12        
Sep 14 00:15 SSW 13 10 Clear CLR 68 57     68%     30.12        
Sep 13 23:55 SSW 13 10 Clear CLR 68 57     68%     30.12        
Sep 13 23:35 S 10 10 Clear CLR 68 55     64%     30.12        
Sep 13 23:15 S 9 10 Clear CLR 68 55     64%     30.13        
Sep 13 22:55 S 8 10 Clear CLR 66 55     68%     30.13        
Sep 13 22:35 S 8 8 Clear CLR 66 55     68%     30.13        
Sep 13 22:15 S 7 10 Clear CLR 66 55     68%     30.13        
Sep 13 21:55 S 8 10 Clear CLR 66 55     68%     30.12        
Sep 13 21:35 S 9 10 Clear   68 55     64%     30.12        
Sep 13 21:15 S 9 10 Clear   68 55     64%     30.12        
Sep 13 20:55 S 6 10 Clear   68 55     64%     30.11        
Sep 13 20:35 SSE 5 10 Clear CLR 68 55     64%     30.11        
Sep 13 20:15 SE 6 10 Clear CLR 68 57     68%     30.11        
Sep 13 19:55 ESE 6 10 Clear CLR 70 55     60%     30.1        
Sep 13 19:35 SE 6 10 Clear CLR 72 57     60%   71 30.1        
Sep 13 19:15 SE 5 10 Clear CLR 73 55     53%   73 30.1        
Sep 13 18:55 Calm 5 Haze CLR 75 57     54%   75 30.1        
Sep 13 18:35 Calm 10 Clear CLR 77 52     41%   76 30.1        
Sep 13 18:15 Calm 10 Clear CLR 77 54     44%   76 30.1        
Sep 13 17:55 Calm 10 Clear CLR 77 54     44%   76 30.1        
Sep 13 17:35 WNW 6 10 Clear CLR 77 52     41%   76 30.11        
Sep 13 17:15 NW 7 10 Clear CLR 77 52     41%   76 30.11        
Sep 13 16:55 W 8 10 Clear CLR 79 50     37%   78 30.11        
Sep 13 16:35 W 9 10 Clear CLR 79 52     39%   78 30.12        
Sep 13 16:15 WNW 13 10 Clear CLR 77 50     39%   76 30.12        
Sep 13 15:55 W 14 10 Clear CLR 77 50     39%   76 30.12        
Sep 13 15:35 WNW 9 10 Clear CLR 77 52     41%   76 30.12        
Sep 13 15:15 WNW 13 10 Clear CLR 77 52     41%   76 30.13        
Sep 13 14:55 WNW 13 10 Clear CLR 75 50     41%   74 30.13        
Sep 13 14:35 NW 11 10 Clear CLR 75 52     44%   74 30.14        
Sep 13 14:15 WNW 15 10 Clear CLR 73 50     44%   72 30.14        
Sep 13 13:55 WNW 15 10 Clear CLR 73 50     44%   72 30.15        
Sep 13 13:35 WNW 16 10 Clear CLR 73 52     47%   73 30.15        
Sep 13 13:15 WNW 16 10 Clear CLR 73 52     47%   73 30.15        
Sep 13 12:55 WNW 17 10 Clear CLR 72 52     50%   71 30.15        
Sep 13 12:35 WNW 15 10 Clear CLR 70 52     53%     30.16        
Sep 13 12:15   10 Clear CLR 70 52     53%     30.17        
Sep 13 11:55   10 Clear CLR 70 52     53%     30.18        
Sep 13 11:35   10 Clear CLR 68 50     53%     30.18        
Sep 13 11:15 W 17 10 Clear CLR 68 52     56%     30.19        
Sep 13 10:55 W 15 10 Clear CLR 66 52     60%     30.19        
Sep 13 10:35 WNW 14 10 Clear CLR 64 52     64%     30.19        
Sep 13 09:55 W 17 10 Clear CLR 64 52     64%     30.19        
Sep 13 09:15 W 16 10 Mostly Clear FEW029 61 54     77%     30.18        
May 15 06:55 N 6 1.5 Fog/Mist OVC003 57 57     100%     29.99        
May 14 23:35 N 6 10 Partly Cloudy SCT110 63 63     100%     29.91        
May 14 22:15 N 9 10 Cloudy BKN022 BKN080 OVC110 64 64     100%     29.91        
Notice The following observation data may not be complete
May 14 21:15   6 Fog/Mist BKN075 OVC090          %              
May 14 19:55 NNW 8 8 Cloudy OVC080 68 68     100%     29.87        
May 14 18:35 N 8 10 Cloudy OVC050 70 70     100%     29.89        
May 14 17:35 N 8 10 Mostly Cloudy FEW050 BKN100 73 70     89%   75 29.88        
May 14 10:55 WNW 6 5 Fog/Mist BKN008 BKN013 BKN095 64 64     100%     30        
May 14 06:15 NW 14 4 Fog/Mist BKN004 61 61     100%     29.9        
May 14 03:15   3 Light Rain BKN007 OVC021 61 61     100%              
May 14 00:35 ENE 8 7 Cloudy OVC021 61 61     100%     29.91        
May 13 22:35 NE 8 6 Fog/Mist OVC007 59 59     100%     29.93        
Notice The following observation data may not be complete
May 13 18:15   10 Clear CLR          %              
May 13 16:55 SW 8 10 Clear CLR 75 72     89%   77 29.9        
May 13 12:55 SE 18 10 Cloudy OVC028 63 63     100%     29.96        
Notice The following observation data may not be complete
May 13 06:15   0.75 Fog/Mist OVC003          %              
May 13 04:15 N 8 3 Fog/Mist OVC004 54 54     100%     29.96        
May 12 16:15 NNE 15 8 Clear   59 59     100%     29.92        
May 12 07:15 ENE 10 4 Light Rain BKN007 BKN015 OVC021 48 48     100% 44   29.95        
May 12 06:55   6 Fog/Mist OVC007 48 48     100%     29.91   0    
May 12 05:35   6 Light Rain OVC008 48 48     100%              
May 12 04:55 NE 13 10 Cloudy OVC008 50 50     100% 45   29.94        
May 12 00:15 NE 9 10 Cloudy BKN048 OVC060 57 57     100%     29.88        
May 11 22:15 NE 17 10 Cloudy OVC011 57 57     100%     29.87        
May 11 16:55 ENE 11 8 Mostly Cloudy BKN043 BKN055 BKN065 63 63     100%     29.78        
May 11 13:55 E 10 10 Cloudy SCT016 OVC050 64 64     100%     29.77        
Jun 11 22:55 S 16 10 Clear CLR 84 70     62%   88 29.77        
Jun 11 21:55 S 16 10 Partly Cloudy SCT070 86 70     59%   91 29.74        
Notice The following observation data may not be complete
Jun 11 19:35   10 Mostly Clear FEW075          %              
Notice The following observation data may not be complete
Jun 11 15:15   10 Clear CLR          %              
Notice The following observation data may not be complete
Jun 11 13:35   10 Clear CLR          %              
Jun 11 10:35 S 22 10 Clear and Windy CLR 82 68     62%   85 29.7        
Jun 11 10:15   10 Clear CLR 81 68     66%   83 29.71        
Jun 11 09:55 S 22 10 Mostly Clear and Windy FEW026 81 68     66%   83 29.71        
Notice The following observation data may not be complete
Jun 11 09:15   10 Clear CLR          %              
Jun 11 07:35 S 21 10 Clear and Windy CLR 75 68     78%   76 29.71        
Jun 10 22:55 S 16 10 Partly Cloudy SCT070 82 72     70%   87 29.7        
Jun 10 11:15 S 16 10 Clear CLR 81 68     66%   83 29.65        
Jun 10 10:15   9 Clear CLR 79 66     65%   79 29.66        
Notice The following observation data may not be complete
Jun 10 07:35   10 Clear CLR          %              
Jun 10 06:35 S 18 10 Clear CLR 70 64     83%     29.68        
Jun 10 02:35 S 16 10 Clear CLR 73 63     69%   74 29.69        
Notice The following observation data may not be complete
Jun 09 18:35   10 Clear CLR          %              
Jun 09 16:15 SSW 11 10 Clear CLR 88 54     31%   86 29.76        
Jun 09 13:15 SSW 16 10 Clear CLR 86 54     33%   84 29.82        
Notice The following observation data may not be complete
Jun 09 02:35   10 Clear CLR          %              
Jun 09 01:35 SSW 10 10 Clear CLR 70 52     53%     29.84        
Jun 08 21:55 S 7 10 Clear CLR 73 50     44%   72 29.86        
Jun 08 19:15 S 9 10 Clear   82 50     32%   81 29.86        
Jun 08 17:35 S 11 10 Clear CLR 84 54     35%   83 29.88        
Jun 08 07:55 SSW 7 10 Clear   66 52     60%     30.04        
Notice The following observation data may not be complete
Jun 07 23:35   10 Clear CLR          %              
Notice The following observation data may not be complete
Jun 07 23:15   10 Clear CLR          %              
Jun 07 19:35 SSW 6 10 Clear CLR 79 48     34%   78 30.03        
Jun 07 12:15 S 9 10 Clear   77 50     39%   76 30.11        
Jun 07 11:35 S 8 10 Clear CLR 77 52     41%   76 30.12        
Jun 06 09:55 ESE 11 10 Clear CLR 75 52     44%   74 30.07        
Notice The following observation data may not be complete
Jun 06 07:15   10 Clear CLR          %              
Jun 06 04:15 ESE 11 10 Clear CLR 66 55     68%     30        
Jun 06 01:35 ESE 8 10 Clear CLR 70 54     56%     29.98        
Notice The following observation data may not be complete
Jun 05 23:35   10 Clear CLR          %              
Jun 05 17:55 NE 8 10 Clear CLR 88 52     29%   85 29.86